Regional Weather Roundup
Issued by NWS Upton, NY

Current Version | Previous Version | Graphics & Text | Print | Product List | Glossary Off
Versions: 1 2 3 4 5 6 7 8 9 10 11 12 13 14 15 16 17 18 19 20 21 22 23 24 25 26 27

000
ASUS41 KOKX 270004
RWROKX

REGIONAL WEATHER ROUNDUP
NATIONAL WEATHER SERVICE NEW YORK NY
800 PM EDT THU MAY 26 2016

NOTE: "FAIR" INDICATES FEW OR NO CLOUDS BELOW 12,000 FEET WITH NO
SIGNIFICANT WEATHER AND/OR OBSTRUCTIONS TO VISIBILITY.

NYZ071-072-176-178-NJZ106-104-270100-
NEW YORK CITY METRO AREA


CITY           SKY/WX    TMP DP  RH WIND       PRES   REMARKS
CENTRAL PARK   CLEAR     81  41  24 VRB6      30.06S
LAGUARDIA APRT MOCLDY    81  55  40 S12       30.03R
KENNEDY INTL   MOCLDY    70  54  56 S15       30.05S
NEWARK/LIBERTY MOCLDY    83  46  27 SE8       30.02S
BRNX BOT. GARD   N/A     79  48  34 S6        30.04F
TETERBORO      CLEAR     85  38  18 S10G17    30.01S
$$

NYZ177-179-078>081-270100-
LONG ISLAND NEW YORK

CITY           SKY/WX    TMP DP  RH WIND       PRES   REMARKS
FARMINGDALE    MOCLDY    73  53  49 S6        30.05F
ISLIP          CLOUDY    73  53  49 SW8       30.06S
SHIRLEY        CLOUDY    70  57  63 S8        30.07S
RIVERHEAD        N/A     73  55  53 CALM      30.05S
WESTHAMPTON    PTCLDY   N/A N/A N/A SW6       30.08S
EAST HAMPTON   FAIR      68  55  63 SW7       30.06S
MONTAUK POINT    N/A     67  57  70 VRB3      30.08S
$$

NYZ052-065-067-270100-
HUDSON VALLEY

CITY           SKY/WX    TMP DP  RH WIND       PRES   REMARKS
WHITE PLAINS   PTCLDY    76  48  37 S6        30.04S
NEWBURGH       NOT AVBL
MONTGOMERY     PTCLDY    77  62  59 S3        30.01R
POUGHKEEPSIE   PTCLDY    84  54  35 S3        30.01R
ALBANY         CLOUDY    82  55  39 S7        30.00S
$$

NJZ001-105-106-008-010-013-015-019>022-104-270100-
NEW JERSEY

CITY           SKY/WX    TMP DP  RH WIND       PRES   REMARKS
NEWARK/LIBERTY MOCLDY    83  46  27 SE8       30.02S
TETERBORO      CLEAR     85  38  18 S10G17    30.01S
CALDWELL       CLEAR     84  46  26 SE9       30.02S
MORRISTOWN     MOCLDY    84  54  34 S5        30.02S
SOMERVILLE     CLEAR     78  56  46 CALM      30.00S
SUSSEX         CLEAR     77  60  55 CALM      30.03R
ANDOVER          N/A     76  62  62 CALM      30.03S
TRENTON        CLEAR     82  56  40 S6        30.02R
MILLVILLE      CLEAR     77  59  53 S6        30.04S
ATLANTIC CITY  CLEAR     75  58  55 S6        30.06S
WRIGHTSTOWN    CLEAR     80  55  41 S8        30.01R
TOMS RIVER     CLEAR     79  48  34 S12       30.05R
BELMAR         CLEAR     76  58  53 SE8       30.06R
$$

PAZ047>061-062-071-270100-
EASTERN PENNSYLVANIA

CITY           SKY/WX    TMP DP  RH WIND       PRES   REMARKS
PHILADELPHIA   PTCLDY    83  52  34 S9        30.03R
ALLENTOWN      CLOUDY    83  57  41 S5        30.02R
SCRANTON       CLOUDY    81  58  45 CALM      30.03R
$$

CTZ002-004>006-009-010-012-RIZ004-006-007-MAZ004-011-015-270100-
SOUTHERN NEW ENGLAND
 IN CT

CITY           SKY/WX    TMP DP  RH WIND       PRES   REMARKS
BRADLEY INTL   PTCLDY    82  56  40 S7        30.01S
HARTFORD       PTCLDY    83  57  41 S7        30.02S
DANBURY        CLOUDY    78  53  41 S7        30.05S
WTRBRY/OXFORD  PTCLDY    77  55  47 S7        30.06F
BRIDGEPORT     CLOUDY    73  55  53 SW6       30.04S
MERIDEN        MOCLDY    79  55  43 S7        30.04R
NEW HAVEN      MOCLDY    74  55  51 SW7       30.05R
CHESTER        NOT AVBL
GROTON         CLOUDY    68  57  68 VRB3      30.05S
WILLIMANTIC    CLEAR     82  55  39 S5        30.04S

 IN RI

CITY           SKY/WX    TMP DP  RH WIND       PRES   REMARKS
PROVIDENCE     MOCLDY    71  57  61 S8        30.05R
BLOCK ISLAND   PTCLDY    65  56  72 SW12      30.08R
WESTERLY       PTCLDY    69  51  52 S6        30.07R

 IN MA

CITY           SKY/WX    TMP DP  RH WIND       PRES   REMARKS
BOSTON         CLOUDY    61  55  81 NE7       30.05S
WORCESTER      PTCLDY    76  55  48 SW5       30.07S
WESTFIELD      CLOUDY    80  56  43 S9        30.02R
PROVINCETOWN   CLOUDY    64  56  75 SE12      30.09S
NANTUCKET      PTCLDY    58  53  84 SE7       30.10S
$$

ANZ330-335-338-340-345-350-353-355-270100-
COASTAL MARINE OBSERVATIONS


STATION/POSITION TIME  SKY/WX   TEMP    WIND        PRES    VSBY  WAVE
                                AIR SEA DIR/SP/G                  HT/PER
                 (UTC)          (F)     (DEG/KT/KT) (MB)    (MI)  (FT/S)
NY HARB ENTRANCE 2250            65 62  180/ 10/ 10 1017.4          2/ 7
20S FIRE ISLAND  2250            62 60  200/ 12/ 14 1017.6          2/ 8
GREAT SOUTH BAY  2300            68 69  260/  6/  8   N/A
23 SSW MONTAUK P 2250            61 58  210/ 10/ 12 1017.7          2/ 8
15 E BARNEGAT LI 2322               58                N/A           2/ 8
HUDSON CANYON    2250            59 58              1018.9          2/ 8
KINGS POINT      2300                               1016.6
EXECUTION ROCKS  NOT AVBL
CENTRAL LI SOUND 2300            69     200/ 10/ 12   N/A           0
EASTERN LI SOUND 2300            61 53  270/  4/  4   N/A
ROBBINS REEF     2300                   170/ 14/ 15 1016.1
$$


>>>>>>>>>>>>>>>>>>>>>>>>>>>> KEY <<<<<<<<<<<<<<<<<<<<<<<<<<<
>                                                          <
>     SKY/WX - SKY CONDITION/PRESENT WEATHER               <
>     TMP    - TEMPERATURE IN FAHRENHEIT                   <
>     DP     - DEWPOINT IN FAHRENHEIT                      <
>     RH     - RELATIVE HUMIDITY IN PERCENT                <
>     WIND   - DIRECTION AND SPEED IN MPH                  <
>     PRES   - MEAN SEA LEVEL PRESSURE IN INCHES OF HG     <
>     WCI    - WIND CHILL INDEX                            <
>     VSB    - VISIBILITY IN MILES                         <
>     HX     - HEAT INDEX                                  <
>     TC     - TEMPERATURE IN CELSIUS                      <
>     VRB    - VARIABLE WIND DIRECTION                     <
>                                                          <
>>>>>>>>>>>>>>>>>>>>>>>>>>>> KEY <<<<<<<<<<<<<<<<<<<<<<<<<<<






USA.gov is the U.S. government's official web portal to all federal, state and local government web resources and services.